Regional Weather Roundup
Issued by NWS

Home | Current Version | Previous Version | Text Only | Print | Product List | Glossary On
Versions: 1 2 3 4 5 6 7 8 9 10 11 12 13 14 15 16 17 18 19 20 21 22 23 24 25 26 27 28 29 30 31 32 33 34 35 36 37 38 39 40 41 42 43 44 45 46 47 48 49 50
000
ASUS43 KTOP 232059
RWRKS

WEATHER ROUNDUP FOR KANSAS
NATIONAL WEATHER SERVICE GOODLAND KS
400 PM CDT THU OCT 23 2014

NOTE:  "FAIR" INDICATES FEW OR NO CLOUDS BELOW 12,000 FEET WITH NO
SIGNIFICANT WEATHER AND/OR OBSTRUCTIONS TO VISIBILITY.

KSZ001>006-013>018-027>032-041>047-232200-
NORTHWEST KANSAS

CITY           SKY/WX    TMP DP  RH WIND       PRES   REMARKS
GOODLAND       SUNNY     75  47  36 SW10      30.06F
HAYS           PTSUNNY   73  57  56 S9        30.04S
HILL CITY      MOSUNNY   73  54  51 S8        30.04F
RUSSELL        CLOUDY    74  56  53 VRB7      30.02F
$$

KSZ061>065-074>080-084>089-232200-
SOUTHWEST KANSAS

CITY           SKY/WX    TMP DP  RH WIND       PRES   REMARKS
DODGE CITY     SUNNY     75  56  51 SE6       30.05
ELKHART          N/A     76  55  48 E5          N/A
GARDEN CITY    SUNNY     73  56  54 CALM      30.06F
GREAT BEND     PTSUNNY   73  59  60 S7        30.03F
LIBERAL        SUNNY     77  59  53 SE6       30.06F
$$

KSZ066>073-081>083-090>101-232200-
SOUTHEAST KANSAS

CITY           SKY/WX    TMP DP  RH WIND       PRES   REMARKS
CHANUTE        CLOUDY    66  59  78 S10       30.08
COFFEYVILLE    LGT RAIN  65  58  78 S14       30.07F
HUTCHINSON     CLOUDY    74  59  59 S8        30.04S
NEWTON         CLOUDY    70  57  64 S6        30.07F
PARSONS        PTSUNNY   66  59  78 S12       30.09F
WICHITA INTL   PTSUNNY   75  60  59 VRB3      30.04
WICHITA JABRA  PTSUNNY   72  61  68 S6        30.04F
WICHITA MCCONL PTSUNNY   73  63  68 SW8       30.05F
WINFIELD       SUNNY     75  62  64 S8        30.05
$$

KSZ007>012-019>026-033>040-048>060-102>105-232200-
NORTHEAST KANSAS

CITY           SKY/WX    TMP DP  RH WIND       PRES   REMARKS
CONCORDIA      SUNNY     73  57  57 SW6       30.02F
EMPORIA        CLOUDY    70  61  73 VRB3      30.05
LAWRENCE       CLOUDY    66  62  87 S7        30.05F FOG
MANHATTAN      SUNNY     76  55  48 VRB3      30.02F
OLATHE IND     CLOUDY    65  60  84 S8        30.07S
OLATHE EXE     CLOUDY    64  60  87 SW8       30.06S
SALINA         SUNNY     75  58  55 S5        30.02F
TOPEKA BILLARD SUNNY     70  63  78 SE6       30.03F
TOPEKA FORBES  MOSUNNY   69  61  75 S8        30.04F
$$



USA.gov is the U.S. government's official web portal to all federal, state and local government web resources and services.